Cloud_Cover
9 36 100 100 100 100 100 100 100 45 100 65 100 100 100 100 100 100 92 98 100 100 100 100 100 100 100 100 100 100 100 100 100 100 100 98 58 95 100 100 100 100 100 100
56 19 98 100 99 100 100 100 100 100 100 100 100 100 91 100 100 100 94 5 5 22 86 100 100 100 100 100 100 100 100 100 100 100 100 100 100 100 100 100 100 100 100 100
100 100 100 99 9 31 100 100 100 100 100 100 100 100 100 100 94 71 99 99 99 37 6 5 91 100 100 100 100 100 100 100 100 100 100 100 100 100 100 100 100 100 96 5
80 93 100 93 100 100 100 100 100 100 100 100 100 100 100 100 100 100 100 100 86 5 16 66 86 95 100 100 100 100 100 100 100 100 100 100 100 100 100 100 100 52 5 5
87 22 58 95 100 100 100 100 100 100 100 100 100 100 100 100 100 100 100 100 100 100 100 100 100 100 100 100 100 100 100 100 99 100 100 100 100 100 100 100 19 0 0 8
100 100 98 6 2 43 100 42 100 100 100 100 100 100 100 100 100 100 100 100 100 100 100 100 100 100 100 100 100 100 100 100 100 100 100 100 100 100 100 31 5 5 6 5
91 100 96 3 5 30 94 33 82 100 100 100 100 100 100 100 100 100 100 100 100 100 100 100 100 100 100 100 100 100 100 100 100 100 94 42 100 100 13 52 5 5 5 2
100 100 100 100 100 98 100 100 100 93 100 100 100 100 100 100 100 100 100 100 100 100 100 100 100 100 100 100 100 100 100 100 100 100 66 100 26 64 100 52 5 5 5 3
100 100 74 100 100 100 100 100 100 100 100 100 100 100 100 84 100 100 100 100 100 100 100 100 100 100 100 100 100 100 100 100 100 100 100 99 100 100 74 5 5 5 22 27
100 100 100 100 100 100 100 100 100 100 100 100 100 100 100 100 74 29 66 47 59 100 100 100 100 100 100 100 100 100 100 100 100 100 100 100 100 42 15 5 47 12 64 46
89 100 88 76 100 100 100 100 100 100 100 100 100 99 100 100 100 100 98 69 80 99 72 80 100 100 100 100 100 100 100 100 100 100 100 100 80 14 5 28 7 5 5 30
99 100 7 16 14 0 46 5 98 100 100 100 100 100 100 98 96 100 89 86 75 100 91 80 100 100 100 100 100 100 100 100 100 100 100 99 45 74 33 5 22 40 54 52
100 35 4 5 5 37 100 100 63 100 82 100 100 100 97 54 39 100 100 75 100 100 99 94 100 100 100 100 100 100 100 100 100 100 96 40 67 61 5 5 29 32 83 100
17 17 2 88 68 100 100 100 100 100 100 96 77 100 99 100 100 100 100 100 100 100 100 100 96 100 100 100 100 100 100 99 79 7 6 68 72 64 62 58 13 46 45 92
5 0 62 100 71 100 100 97 44 100 100 100 100 100 100 100 100 100 100 100 100 100 100 98 100 95 100 100 100 60 8 67 51 26 26 10 65 73 57 72 59 53 96 100
0 1 98 100 100 100 100 60 98 100 100 100 100 100 100 100 100 100 100 100 100 100 100 100 100 100 81 23 5 39 22 86 88 56 64 19 62 58 100 54 54 90 100 100
5 5 100 100 100 84 100 100 100 100 100 100 100 100 100 100 100 100 100 100 100 100 100 77 25 60 5 5 31 76 76 63 10 5 26 97 100 100 85 58 84 100 100 100
6 33 100 100 100 100 100 100 100 100 100 100 100 100 100 100 100 100 100 100 78 39 34 11 6 6 42 84 75 70 76 14 12 22 100 99 100 92 87 97 100 100 100 100
27 5 11 100 100 100 100 100 100 100 91 100 100 100 97 100 100 100 76 12 5 15 69 56 62 57 61 44 44 68 70 82 91 100 100 89 97 100 100 100 100 100 100 100
94 63 99 100 100 100 100 100 100 100 100 100 100 100 100 100 99 17 14 14 5 14 26 31 21 7 34 6 12 95 6 22 80 100 100 100 100 100 100 100 100 100 100 100
100 100 100 100 100 100 100 100 100 100 100 100 100 100 100 97 58 30 5 15 88 77 23 7 5 5 5 5 14 5 18 67 73 23 56 95 100 100 100 100 100 100 88 95
96 85 100 100 100 100 100 100 100 99 98 100 100 100 100 100 88 80 43 61 39 37 12 5 5 5 5 5 5 36 49 73 96 96 88 85 93 100 100 100 100 92 92 91
100 94 100 100 85 90 97 94 82 100 100 100 100 100 98 20 28 27 27 22 36 64 42 5 30 5 37 14 38 37 22 83 99 100 100 100 100 100 100 99 96 98 100 94
100 100 100 100 100 100 74 93 100 100 100 100 100 100 12 77 92 59 36 69 50 38 14 27 13 59 47 67 64 70 83 100 100 100 100 100 100 100 100 100 96 100 100 99
100 100 100 100 86 66 98 100 100 100 100 100 99 27 5 15 38 52 75 85 61 28 29 87 99 82 48 66 100 100 100 72 75 100 100 100 100 96 93 100 100 100 100 94
100 100 100 100 100 100 100 100 100 100 100 100 96 89 74 53 80 57 65 89 72 70 100 99 63 63 88 93 81 76 69 83 87 95 99 88 94 100 100 100 94 68 60 86
100 100 100 100 100 100 100 100 100 100 100 100 100 93 83 80 71 64 68 81 100 91 90 81 54 38 68 65 72 95 94 79 92 76 97 100 100 100 87 66 58 67 88 100